Time,TemperatureF,DewpointF,PressureIn,WindDirection,WindDirectionDegrees,WindSpeedMPH,WindSpeedGustMPH,Humidity,HourlyPrecipIn,Conditions,Clouds,dailyrainin,SoftwareType,DateUTC
2013-08-19 00:01:00,68.9,63.9,30.39,ENE,68,0.0,0.0,84,0.00,,,0.36,WUHU216TE923,2013-08-19 04:01:00,
2013-08-19 00:02:00,68.9,63.9,30.39,ENE,68,0.0,0.0,84,0.00,,,0.36,WUHU216TE923,2013-08-19 04:02:00,
2013-08-19 00:07:00,68.9,63.9,30.36,ENE,68,0.0,0.0,84,0.00,,,0.00,WUHU216TE923,2013-08-19 04:07:00,
2013-08-19 00:12:00,68.9,63.9,30.36,ENE,68,0.0,0.0,84,0.00,,,0.00,WUHU216TE923,2013-08-19 04:12:00,
2013-08-19 00:17:00,68.9,63.9,30.36,ENE,68,0.0,0.0,84,0.00,,,0.00,WUHU216TE923,2013-08-19 04:17:00,
2013-08-19 00:22:00,68.9,63.9,30.36,ESE,113,0.0,0.0,84,0.00,,,0.00,WUHU216TE923,2013-08-19 04:22:00,
2013-08-19 00:27:00,68.9,63.9,30.36,NE,45,0.0,0.0,84,0.00,,,0.00,WUHU216TE923,2013-08-19 04:27:00,
2013-08-19 00:32:00,68.9,63.9,30.36,NE,45,0.0,0.0,84,0.00,,,0.00,WUHU216TE923,2013-08-19 04:32:00,
2013-08-19 00:37:00,68.7,63.7,30.36,NE,45,0.0,0.0,84,0.00,,,0.00,WUHU216TE923,2013-08-19 04:37:00,
2013-08-19 00:42:00,68.7,63.7,30.36,NE,45,0.0,0.0,84,0.00,,,0.00,WUHU216TE923,2013-08-19 04:42:00,
2013-08-19 00:47:00,68.7,63.7,30.36,NE,45,0.0,0.0,84,0.00,,,0.00,WUHU216TE923,2013-08-19 04:47:00,
2013-08-19 00:52:00,68.5,63.5,30.36,WNW,293,0.0,0.0,84,0.00,,,0.00,WUHU216TE923,2013-08-19 04:52:00,
2013-08-19 00:57:00,68.5,63.5,30.36,NW,315,0.0,0.0,84,0.00,,,0.00,WUHU216TE923,2013-08-19 04:57:00,
2013-08-19 01:02:00,68.5,63.5,30.36,ENE,68,0.0,0.0,84,0.00,,,0.00,WUHU216TE923,2013-08-19 05:02:00,
2013-08-19 01:07:00,68.4,63.1,30.38,East,90,0.0,0.0,83,0.00,,,0.00,WUHU216TE923,2013-08-19 05:07:00,
2013-08-19 01:12:00,68.4,63.1,30.38,NE,45,0.0,0.0,83,0.00,,,0.00,WUHU216TE923,2013-08-19 05:12:00,
2013-08-19 01:17:00,68.4,63.1,30.38,NNE,23,0.0,0.0,83,0.00,,,0.00,WUHU216TE923,2013-08-19 05:17:00,
2013-08-19 01:22:00,68.4,63.1,30.38,NE,45,0.0,0.0,83,0.00,,,0.00,WUHU216TE923,2013-08-19 05:22:00,
2013-08-19 01:27:00,68.2,62.9,30.43,NNE,23,0.0,0.0,83,0.00,,,0.00,WUHU216TE923,2013-08-19 05:27:00,
2013-08-19 01:32:00,68.2,62.9,30.43,NNE,23,0.0,0.0,83,0.00,,,0.00,WUHU216TE923,2013-08-19 05:32:00,
2013-08-19 01:37:00,68.0,62.7,30.43,NNE,23,0.0,0.0,83,0.00,,,0.00,WUHU216TE923,2013-08-19 05:37:00,
2013-08-19 01:42:00,68.0,62.7,30.43,NW,315,0.0,0.0,83,0.03,,,0.03,WUHU216TE923,2013-08-19 05:42:00,
2013-08-19 01:47:00,68.0,62.7,30.42,East,90,0.0,0.0,83,0.03,,,0.03,WUHU216TE923,2013-08-19 05:47:00,
2013-08-19 01:52:00,68.0,62.7,30.42,NE,45,0.0,0.0,83,0.03,,,0.03,WUHU216TE923,2013-08-19 05:52:00,
2013-08-19 01:57:00,68.0,62.7,30.42,NNE,23,0.0,0.0,83,0.03,,,0.03,WUHU216TE923,2013-08-19 05:57:00,
2013-08-19 02:02:00,68.0,62.7,30.42,ENE,68,0.0,0.0,83,0.03,,,0.03,WUHU216TE923,2013-08-19 06:02:00,
2013-08-19 02:07:00,68.0,63.0,30.40,ENE,68,0.0,0.0,84,0.03,,,0.03,WUHU216TE923,2013-08-19 06:07:00,
2013-08-19 02:12:00,67.8,62.8,30.40,ENE,68,0.0,0.0,84,0.05,,,0.05,WUHU216TE923,2013-08-19 06:12:00,
2013-08-19 02:17:00,67.8,62.8,30.40,NNE,23,0.0,0.0,84,0.05,,,0.05,WUHU216TE923,2013-08-19 06:17:00,
2013-08-19 02:22:00,67.8,62.8,30.40,ENE,68,0.0,0.0,84,0.05,,,0.05,WUHU216TE923,2013-08-19 06:22:00,
2013-08-19 02:27:00,67.8,62.8,30.38,East,90,0.0,0.0,84,0.08,,,0.08,WUHU216TE923,2013-08-19 06:27:00,
2013-08-19 02:32:00,67.8,62.8,30.38,North,0,0.0,0.0,84,0.05,,,0.08,WUHU216TE923,2013-08-19 06:32:00,
2013-08-19 02:37:00,67.6,62.6,30.38,West,270,0.0,0.0,84,0.05,,,0.08,WUHU216TE923,2013-08-19 06:37:00,
2013-08-19 02:42:00,67.6,62.6,30.38,NNW,338,0.0,0.0,84,0.08,,,0.11,WUHU216TE923,2013-08-19 06:42:00,
2013-08-19 02:47:00,67.5,62.5,30.43,WSW,248,0.0,0.0,84,0.08,,,0.11,WUHU216TE923,2013-08-19 06:47:00,
2013-08-19 02:52:00,67.5,62.5,30.43,NE,45,0.0,0.0,84,0.08,,,0.11,WUHU216TE923,2013-08-19 06:52:00,
2013-08-19 02:57:00,67.5,62.5,30.43,ENE,68,0.0,0.0,84,0.11,,,0.14,WUHU216TE923,2013-08-19 06:57:00,
2013-08-19 03:02:00,67.5,62.9,30.43,NE,45,0.0,0.0,85,0.13,,,0.16,WUHU216TE923,2013-08-19 07:02:00,
2013-08-19 03:07:00,67.5,62.9,30.42,ENE,68,0.0,0.0,85,0.14,,,0.19,WUHU216TE923,2013-08-19 07:07:00,
2013-08-19 03:12:00,67.5,62.9,30.42,West,270,0.0,0.0,85,0.14,,,0.19,WUHU216TE923,2013-08-19 07:12:00,
2013-08-19 03:17:00,67.5,62.9,30.42,West,270,0.0,0.0,85,0.11,,,0.19,WUHU216TE923,2013-08-19 07:17:00,
2013-08-19 03:22:00,67.5,62.9,30.42,West,270,0.0,0.0,85,0.14,,,0.22,WUHU216TE923,2013-08-19 07:22:00,
2013-08-19 03:27:00,67.5,62.9,30.41,NW,315,0.0,0.0,85,0.14,,,0.22,WUHU216TE923,2013-08-19 07:27:00,
2013-08-19 03:32:00,67.5,62.9,30.41,ESE,113,0.0,0.0,85,0.14,,,0.22,WUHU216TE923,2013-08-19 07:32:00,
2013-08-19 03:37:00,67.3,62.7,30.41,East,90,0.0,0.0,85,0.14,,,0.25,WUHU216TE923,2013-08-19 07:37:00,
2013-08-19 03:42:00,67.3,62.7,30.41,NE,45,0.0,0.0,85,0.14,,,0.25,WUHU216TE923,2013-08-19 07:42:00,
2013-08-19 03:47:00,67.3,62.7,30.38,NNE,23,0.0,0.0,85,0.16,,,0.27,WUHU216TE923,2013-08-19 07:47:00,
2013-08-19 03:52:00,67.3,62.7,30.38,ENE,68,0.0,0.0,85,0.13,,,0.27,WUHU216TE923,2013-08-19 07:52:00,
2013-08-19 03:57:00,67.1,62.5,30.38,ESE,113,0.0,0.0,85,0.11,,,0.27,WUHU216TE923,2013-08-19 07:57:00,
2013-08-19 04:02:00,67.1,62.5,30.38,ENE,68,0.0,0.0,85,0.08,,,0.27,WUHU216TE923,2013-08-19 08:02:00,
2013-08-19 04:07:00,67.1,62.5,30.36,NE,45,0.0,0.0,85,0.08,,,0.27,WUHU216TE923,2013-08-19 08:07:00,
2013-08-19 04:12:00,67.1,62.5,30.36,NE,45,0.0,0.0,85,0.05,,,0.27,WUHU216TE923,2013-08-19 08:12:00,
2013-08-19 04:17:00,67.1,62.5,30.36,ENE,68,0.0,0.0,85,0.05,,,0.27,WUHU216TE923,2013-08-19 08:17:00,
2013-08-19 04:22:00,67.1,62.5,30.36,ESE,113,0.0,0.0,85,0.05,,,0.27,WUHU216TE923,2013-08-19 08:22:00,
2013-08-19 04:27:00,67.1,62.5,30.36,NE,45,0.0,0.0,85,0.02,,,0.27,WUHU216TE923,2013-08-19 08:27:00,
2013-08-19 04:32:00,67.1,62.5,30.36,East,90,0.0,0.0,85,0.02,,,0.27,WUHU216TE923,2013-08-19 08:32:00,
2013-08-19 04:37:00,67.1,62.5,30.36,East,90,0.0,0.0,85,0.00,,,0.27,WUHU216TE923,2013-08-19 08:37:00,
2013-08-19 04:42:00,67.1,62.5,30.36,ENE,68,0.0,0.0,85,0.00,,,0.27,WUHU216TE923,2013-08-19 08:42:00,
2013-08-19 04:47:00,67.1,62.5,30.41,ENE,68,0.0,0.0,85,0.00,,,0.27,WUHU216TE923,2013-08-19 08:47:00,
2013-08-19 04:52:00,67.1,62.5,30.41,NE,45,0.0,0.0,85,0.00,,,0.27,WUHU216TE923,2013-08-19 08:52:00,
2013-08-19 04:57:00,67.1,62.5,30.41,NE,45,0.0,0.0,85,0.00,,,0.27,WUHU216TE923,2013-08-19 08:57:00,
2013-08-19 05:02:00,67.1,62.5,30.41,NE,45,0.0,0.0,85,0.00,,,0.27,WUHU216TE923,2013-08-19 09:02:00,
2013-08-19 05:07:00,67.1,62.5,30.38,NE,45,0.0,0.0,85,0.00,,,0.27,WUHU216TE923,2013-08-19 09:07:00,
2013-08-19 05:12:00,67.1,62.5,30.38,NE,45,0.0,0.0,85,0.00,,,0.27,WUHU216TE923,2013-08-19 09:12:00,
2013-08-19 05:17:00,66.9,62.3,30.38,NE,45,0.0,0.0,85,0.00,,,0.27,WUHU216TE923,2013-08-19 09:17:00,
2013-08-19 05:22:00,66.9,62.3,30.38,ENE,68,0.0,0.0,85,0.00,,,0.27,WUHU216TE923,2013-08-19 09:22:00,
2013-08-19 05:27:00,67.1,62.5,30.33,NE,45,0.0,0.0,85,0.00,,,0.27,WUHU216TE923,2013-08-19 09:27:00,
2013-08-19 05:32:00,66.9,62.3,30.33,ESE,113,0.0,0.0,85,0.00,,,0.27,WUHU216TE923,2013-08-19 09:32:00,
2013-08-19 05:37:00,66.9,62.3,30.33,NE,45,0.0,0.0,85,0.00,,,0.27,WUHU216TE923,2013-08-19 09:37:00,
2013-08-19 05:42:00,67.1,62.5,30.33,NE,45,0.0,0.0,85,0.00,,,0.27,WUHU216TE923,2013-08-19 09:42:00,
2013-08-19 05:47:00,66.9,62.3,30.39,East,90,0.0,0.0,85,0.00,,,0.27,WUHU216TE923,2013-08-19 09:47:00,
2013-08-19 05:52:00,66.9,62.3,30.39,NE,45,0.0,0.0,85,0.00,,,0.27,WUHU216TE923,2013-08-19 09:52:00,
2013-08-19 05:57:00,66.9,62.3,30.39,NE,45,0.0,0.0,85,0.00,,,0.27,WUHU216TE923,2013-08-19 09:57:00,
2013-08-19 06:02:00,66.9,62.3,30.39,ENE,68,0.0,0.0,85,0.00,,,0.27,WUHU216TE923,2013-08-19 10:02:00,
2013-08-19 06:07:00,66.9,62.6,30.38,NE,45,0.0,0.0,86,0.00,,,0.27,WUHU216TE923,2013-08-19 10:07:00,
2013-08-19 06:12:00,66.9,62.6,30.38,ENE,68,0.0,0.0,86,0.00,,,0.27,WUHU216TE923,2013-08-19 10:12:00,
2013-08-19 06:13:00,66.9,62.6,30.38,NE,45,0.0,0.0,86,0.00,,,0.27,WUHU216TE923,2013-08-19 10:13:00,
2013-08-19 06:17:00,66.9,62.6,30.38,NE,45,0.0,0.0,86,0.00,,,0.27,WUHU216TE923,2013-08-19 10:17:00,
2013-08-19 06:22:00,66.9,62.6,30.38,NE,45,0.0,0.0,86,0.00,,,0.27,WUHU216TE923,2013-08-19 10:22:00,
2013-08-19 06:27:00,66.7,62.4,30.34,NNE,23,0.0,0.0,86,0.00,,,0.27,WUHU216TE923,2013-08-19 10:27:00,
2013-08-19 06:32:00,66.9,62.6,30.34,ENE,68,0.0,0.0,86,0.00,,,0.27,WUHU216TE923,2013-08-19 10:32:00,
2013-08-19 06:37:00,66.7,62.4,30.34,ENE,68,0.0,0.0,86,0.00,,,0.27,WUHU216TE923,2013-08-19 10:37:00,
2013-08-19 06:42:00,66.7,62.4,30.34,ENE,68,0.0,0.0,86,0.00,,,0.27,WUHU216TE923,2013-08-19 10:42:00,
2013-08-19 06:47:00,66.7,62.4,30.34,ENE,68,0.0,0.0,86,0.00,,,0.27,WUHU216TE923,2013-08-19 10:47:00,
2013-08-19 06:52:00,66.7,62.4,30.34,SSE,158,0.0,0.0,86,0.00,,,0.27,WUHU216TE923,2013-08-19 10:52:00,
2013-08-19 06:57:00,66.7,62.4,30.34,SSE,158,0.0,0.0,86,0.00,,,0.27,WUHU216TE923,2013-08-19 10:57:00,
2013-08-19 07:02:00,66.7,62.4,30.34,SE,135,0.0,0.0,86,0.00,,,0.27,WUHU216TE923,2013-08-19 11:02:00,
2013-08-19 07:07:00,66.7,62.4,30.34,SE,135,0.0,0.0,86,0.00,,,0.27,WUHU216TE923,2013-08-19 11:07:00,
2013-08-19 07:12:00,66.6,62.3,30.34,SE,135,0.0,0.0,86,0.00,,,0.27,WUHU216TE923,2013-08-19 11:12:00,
2013-08-19 07:17:00,66.6,62.3,30.34,SE,135,0.0,0.0,86,0.00,,,0.27,WUHU216TE923,2013-08-19 11:17:00,
2013-08-19 07:22:00,66.7,62.4,30.34,ESE,113,0.0,0.0,86,0.00,,,0.27,WUHU216TE923,2013-08-19 11:22:00,
2013-08-19 07:27:00,66.7,62.4,30.39,East,90,0.0,0.0,86,0.00,,,0.27,WUHU216TE923,2013-08-19 11:27:00,
2013-08-19 07:32:00,66.7,62.4,30.39,ENE,68,0.0,0.0,86,0.00,,,0.27,WUHU216TE923,2013-08-19 11:32:00,
2013-08-19 07:37:00,66.7,62.4,30.39,SE,135,0.0,0.0,86,0.00,,,0.27,WUHU216TE923,2013-08-19 11:37:00,
2013-08-19 07:42:00,66.7,62.4,30.39,SE,135,0.0,0.0,86,0.00,,,0.27,WUHU216TE923,2013-08-19 11:42:00,
2013-08-19 07:47:00,66.7,62.4,30.38,SE,135,0.0,0.0,86,0.00,,,0.27,WUHU216TE923,2013-08-19 11:47:00,
2013-08-19 07:52:00,66.7,62.4,30.38,East,90,0.0,0.0,86,0.00,,,0.27,WUHU216TE923,2013-08-19 11:52:00,
2013-08-19 07:57:00,66.7,62.4,30.38,NE,45,0.0,0.0,86,0.00,,,0.27,WUHU216TE923,2013-08-19 11:57:00,
2013-08-19 08:02:00,66.7,62.4,30.38,ESE,113,0.0,0.0,86,0.00,,,0.27,WUHU216TE923,2013-08-19 12:02:00,
2013-08-19 08:07:00,66.9,62.6,30.42,ENE,68,0.0,0.0,86,0.00,,,0.27,WUHU216TE923,2013-08-19 12:07:00,
2013-08-19 08:12:00,66.9,62.6,30.42,NE,45,0.0,0.0,86,0.00,,,0.27,WUHU216TE923,2013-08-19 12:12:00,
2013-08-19 08:17:00,66.9,62.6,30.42,NNE,23,0.0,0.0,86,0.00,,,0.27,WUHU216TE923,2013-08-19 12:17:00,
2013-08-19 08:22:00,66.9,62.6,30.42,ENE,68,0.0,0.0,86,0.00,,,0.27,WUHU216TE923,2013-08-19 12:22:00,
2013-08-19 08:27:00,66.9,62.6,30.42,East,90,0.0,0.0,86,0.00,,,0.27,WUHU216TE923,2013-08-19 12:27:00,
2013-08-19 08:32:00,67.1,62.8,30.42,ENE,68,0.0,0.0,86,0.00,,,0.27,WUHU216TE923,2013-08-19 12:32:00,
2013-08-19 08:37:00,67.1,62.8,30.42,East,90,0.0,0.0,86,0.00,,,0.27,WUHU216TE923,2013-08-19 12:37:00,
2013-08-19 08:42:00,67.1,62.8,30.42,ESE,113,0.0,0.0,86,0.00,,,0.27,WUHU216TE923,2013-08-19 12:42:00,
2013-08-19 08:47:00,67.1,62.8,30.41,ENE,68,0.0,0.0,86,0.00,,,0.27,WUHU216TE923,2013-08-19 12:47:00,
2013-08-19 08:52:00,67.3,63.0,30.41,East,90,0.0,0.0,86,0.00,,,0.27,WUHU216TE923,2013-08-19 12:52:00,
2013-08-19 08:57:00,67.3,63.0,30.41,NNE,23,0.0,0.0,86,0.00,,,0.27,WUHU216TE923,2013-08-19 12:57:00,
2013-08-19 09:02:00,67.3,63.0,30.41,NNE,23,0.0,0.0,86,0.00,,,0.27,WUHU216TE923,2013-08-19 13:02:00,
2013-08-19 09:07:00,67.3,63.0,30.38,NNE,23,0.0,0.0,86,0.00,,,0.27,WUHU216TE923,2013-08-19 13:07:00,
2013-08-19 09:12:00,67.5,63.2,30.38,ENE,68,0.0,0.0,86,0.00,,,0.27,WUHU216TE923,2013-08-19 13:12:00,
2013-08-19 09:17:00,67.5,63.2,30.38,ESE,113,0.0,0.0,86,0.00,,,0.27,WUHU216TE923,2013-08-19 13:17:00,
2013-08-19 09:22:00,67.5,63.2,30.38,ESE,113,0.0,0.0,86,0.00,,,0.27,WUHU216TE923,2013-08-19 13:22:00,
2013-08-19 09:27:00,67.8,63.5,30.43,ESE,113,0.0,0.0,86,0.00,,,0.27,WUHU216TE923,2013-08-19 13:27:00,
2013-08-19 09:32:00,67.8,63.5,30.43,ESE,113,0.0,0.0,86,0.00,,,0.27,WUHU216TE923,2013-08-19 13:32:00,
2013-08-19 09:37:00,68.2,63.9,30.43,SE,135,0.0,0.0,86,0.00,,,0.27,WUHU216TE923,2013-08-19 13:37:00,
2013-08-19 09:42:00,68.2,63.9,30.43,SE,135,0.0,0.0,86,0.00,,,0.27,WUHU216TE923,2013-08-19 13:42:00,
2013-08-19 09:47:00,68.5,64.2,30.42,East,90,0.0,0.0,86,0.00,,,0.27,WUHU216TE923,2013-08-19 13:47:00,
2013-08-19 09:52:00,68.5,64.2,30.42,East,90,0.0,0.0,86,0.00,,,0.27,WUHU216TE923,2013-08-19 13:52:00,
2013-08-19 09:57:00,68.7,64.0,30.42,NNE,23,0.0,0.0,85,0.00,,,0.27,WUHU216TE923,2013-08-19 13:57:00,
2013-08-19 10:02:00,68.7,64.0,30.42,NNE,23,0.0,0.0,85,0.00,,,0.27,WUHU216TE923,2013-08-19 14:02:00,
2013-08-19 10:07:00,68.9,64.2,30.40,ESE,113,0.0,0.0,85,0.00,,,0.27,WUHU216TE923,2013-08-19 14:07:00,
2013-08-19 10:12:00,68.7,64.0,30.40,ENE,68,0.0,0.0,85,0.00,,,0.27,WUHU216TE923,2013-08-19 14:12:00,
2013-08-19 10:17:00,68.9,64.2,30.40,NE,45,0.0,0.0,85,0.00,,,0.27,WUHU216TE923,2013-08-19 14:17:00,
2013-08-19 10:22:00,69.1,64.4,30.40,SW,225,0.0,0.0,85,0.00,,,0.27,WUHU216TE923,2013-08-19 14:22:00,
2013-08-19 10:27:00,69.1,64.4,30.42,NNE,23,0.0,0.0,85,0.00,,,0.27,WUHU216TE923,2013-08-19 14:27:00,
2013-08-19 10:32:00,69.3,64.6,30.42,NE,45,0.0,0.0,85,0.00,,,0.27,WUHU216TE923,2013-08-19 14:32:00,
2013-08-19 10:37:00,69.6,64.9,30.42,NE,45,0.0,0.0,85,0.00,,,0.27,WUHU216TE923,2013-08-19 14:37:00,
2013-08-19 10:42:00,69.6,64.9,30.42,NE,45,0.0,0.0,85,0.00,,,0.27,WUHU216TE923,2013-08-19 14:42:00,
2013-08-19 10:47:00,70.2,65.5,30.43,South,180,0.0,0.0,85,0.00,,,0.27,WUHU216TE923,2013-08-19 14:47:00,
2013-08-19 10:52:00,70.2,65.5,30.43,South,180,0.0,0.0,85,0.00,,,0.27,WUHU216TE923,2013-08-19 14:52:00,
2013-08-19 10:57:00,70.2,65.5,30.43,North,0,0.0,0.0,85,0.00,,,0.27,WUHU216TE923,2013-08-19 14:57:00,
2013-08-19 11:02:00,70.2,65.5,30.43,NNE,23,0.0,0.0,85,0.00,,,0.27,WUHU216TE923,2013-08-19 15:02:00,
2013-08-19 11:07:00,70.0,65.0,30.39,ENE,68,0.0,0.0,84,0.00,,,0.27,WUHU216TE923,2013-08-19 15:07:00,
2013-08-19 11:12:00,70.0,65.0,30.39,ENE,68,0.0,0.0,84,0.00,,,0.27,WUHU216TE923,2013-08-19 15:12:00,
2013-08-19 11:17:00,70.2,65.2,30.39,NE,45,0.0,0.0,84,0.00,,,0.27,WUHU216TE923,2013-08-19 15:17:00,
2013-08-19 11:22:00,70.0,65.0,30.39,SSE,158,0.0,0.0,84,0.00,,,0.27,WUHU216TE923,2013-08-19 15:22:00,
2013-08-19 11:27:00,70.2,65.2,30.37,SSW,203,0.0,0.0,84,0.00,,,0.27,WUHU216TE923,2013-08-19 15:27:00,
2013-08-19 11:32:00,70.2,65.2,30.37,SSW,203,0.0,0.0,84,0.00,,,0.27,WUHU216TE923,2013-08-19 15:32:00,
2013-08-19 11:37:00,70.3,65.3,30.37,NNE,23,0.0,0.0,84,0.00,,,0.27,WUHU216TE923,2013-08-19 15:37:00,
2013-08-19 11:42:00,70.2,65.2,30.37,NNE,23,0.0,0.0,84,0.00,,,0.27,WUHU216TE923,2013-08-19 15:42:00,
2013-08-19 11:47:00,70.2,65.2,30.37,NW,315,0.0,0.0,84,0.00,,,0.27,WUHU216TE923,2013-08-19 15:47:00,
2013-08-19 11:52:00,70.2,65.2,30.37,SW,225,0.0,0.0,84,0.00,,,0.27,WUHU216TE923,2013-08-19 15:52:00,
2013-08-19 11:57:00,70.3,65.3,30.37,South,180,0.0,0.0,84,0.00,,,0.27,WUHU216TE923,2013-08-19 15:57:00,
2013-08-19 12:02:00,70.5,65.5,30.37,SSW,203,0.0,0.0,84,0.00,,,0.27,WUHU216TE923,2013-08-19 16:02:00,
2013-08-19 12:07:00,70.5,65.5,30.43,SW,225,0.0,0.0,84,0.00,,,0.27,WUHU216TE923,2013-08-19 16:07:00,
2013-08-19 12:12:00,70.7,65.7,30.43,NE,45,0.0,0.0,84,0.00,,,0.27,WUHU216TE923,2013-08-19 16:12:00,
2013-08-19 12:17:00,70.7,65.7,30.43,NNE,23,0.0,0.0,84,0.00,,,0.27,WUHU216TE923,2013-08-19 16:17:00,
2013-08-19 12:22:00,70.9,65.5,30.43,SE,135,0.0,0.0,83,0.00,,,0.27,WUHU216TE923,2013-08-19 16:22:00,
2013-08-19 12:27:00,71.1,65.7,30.38,SSW,203,0.0,0.0,83,0.00,,,0.27,WUHU216TE923,2013-08-19 16:27:00,
2013-08-19 12:32:00,71.2,65.5,30.38,ESE,113,0.0,0.0,82,0.00,,,0.27,WUHU216TE923,2013-08-19 16:32:00,
2013-08-19 12:37:00,71.4,65.3,30.38,SE,135,0.0,0.0,81,0.00,,,0.27,WUHU216TE923,2013-08-19 16:37:00,
2013-08-19 12:42:00,72.1,65.3,30.38,NNE,23,0.0,0.0,79,0.00,,,0.27,WUHU216TE923,2013-08-19 16:42:00,
2013-08-19 12:47:00,72.3,65.5,30.40,NNE,23,0.0,0.0,79,0.00,,,0.27,WUHU216TE923,2013-08-19 16:47:00,
2013-08-19 12:52:00,72.7,65.6,30.40,NNW,338,0.0,0.0,78,0.00,,,0.27,WUHU216TE923,2013-08-19 16:52:00,
2013-08-19 12:57:00,72.9,65.4,30.40,WSW,248,0.0,0.0,77,0.00,,,0.27,WUHU216TE923,2013-08-19 16:57:00,
2013-08-19 13:02:00,73.0,65.1,30.40,NE,45,0.0,0.0,76,0.00,,,0.27,WUHU216TE923,2013-08-19 17:02:00,
2013-08-19 13:07:00,73.2,65.3,30.35,NNE,23,0.0,0.0,76,0.00,,,0.27,WUHU216TE923,2013-08-19 17:07:00,
2013-08-19 13:12:00,73.6,64.6,30.35,NE,45,0.0,0.0,73,0.00,,,0.27,WUHU216TE923,2013-08-19 17:12:00,
2013-08-19 13:17:00,74.5,65.4,30.35,West,270,0.0,0.0,73,0.00,,,0.27,WUHU216TE923,2013-08-19 17:17:00,
2013-08-19 13:22:00,75.4,64.7,30.35,ESE,113,0.3,1.7,69,0.00,,,0.27,WUHU216TE923,2013-08-19 17:22:00,
2013-08-19 13:27:00,75.0,64.3,30.38,NNE,23,0.4,1.7,69,0.00,,,0.27,WUHU216TE923,2013-08-19 17:27:00,
2013-08-19 13:32:00,75.7,64.6,30.38,NNE,23,0.2,0.4,68,0.00,,,0.27,WUHU216TE923,2013-08-19 17:32:00,
2013-08-19 13:37:00,75.7,64.2,30.38,ENE,68,0.0,0.2,67,0.00,,,0.27,WUHU216TE923,2013-08-19 17:37:00,
2013-08-19 13:42:00,75.6,63.7,30.38,SE,135,0.0,0.0,66,0.00,,,0.27,WUHU216TE923,2013-08-19 17:42:00,
2013-08-19 13:47:00,75.4,64.3,30.34,SSE,158,0.0,0.0,68,0.00,,,0.27,WUHU216TE923,2013-08-19 17:47:00,
2013-08-19 13:52:00,75.0,63.9,30.34,NE,45,0.0,0.0,68,0.00,,,0.27,WUHU216TE923,2013-08-19 17:52:00,
2013-08-19 13:57:00,75.4,63.5,30.34,East,90,0.0,0.0,66,0.00,,,0.27,WUHU216TE923,2013-08-19 17:57:00,
2013-08-19 14:02:00,75.9,63.5,30.34,ESE,113,0.1,1.4,65,0.00,,,0.27,WUHU216TE923,2013-08-19 18:02:00,
2013-08-19 14:07:00,76.5,62.3,30.30,SE,135,0.5,1.4,61,0.00,,,0.27,WUHU216TE923,2013-08-19 18:07:00,
2013-08-19 14:12:00,76.3,63.0,30.30,NNE,23,0.5,1.3,63,0.00,,,0.27,WUHU216TE923,2013-08-19 18:12:00,
2013-08-19 14:17:00,76.1,63.7,30.30,SE,135,0.0,0.5,65,0.00,,,0.27,WUHU216TE923,2013-08-19 18:17:00,
2013-08-19 14:22:00,75.6,63.2,30.30,NW,315,0.0,0.0,65,0.00,,,0.27,WUHU216TE923,2013-08-19 18:22:00,
2013-08-19 14:27:00,75.4,63.5,30.33,NNW,338,0.0,0.0,66,0.00,,,0.27,WUHU216TE923,2013-08-19 18:27:00,
2013-08-19 14:32:00,75.4,64.3,30.33,NNW,338,0.0,0.0,68,0.00,,,0.27,WUHU216TE923,2013-08-19 18:32:00,
2013-08-19 14:37:00,75.2,64.5,30.33,NNW,338,0.0,0.0,69,0.00,,,0.27,WUHU216TE923,2013-08-19 18:37:00,
2013-08-19 14:42:00,75.9,65.6,30.33,NE,45,0.0,0.0,70,0.00,,,0.27,WUHU216TE923,2013-08-19 18:42:00,
2013-08-19 14:47:00,76.3,66.0,30.29,SE,135,0.0,0.0,70,0.00,,,0.27,WUHU216TE923,2013-08-19 18:47:00,
2013-08-19 14:52:00,76.5,66.2,30.29,SSE,158,0.0,0.0,70,0.00,,,0.27,WUHU216TE923,2013-08-19 18:52:00,
2013-08-19 14:57:00,76.5,65.8,30.29,SE,135,0.0,0.0,69,0.00,,,0.27,WUHU216TE923,2013-08-19 18:57:00,
2013-08-19 15:02:00,77.5,66.7,30.29,SE,135,0.0,0.0,69,0.00,,,0.27,WUHU216TE923,2013-08-19 19:02:00,
2013-08-19 15:07:00,77.7,66.5,30.30,South,180,0.0,0.0,68,0.00,,,0.27,WUHU216TE923,2013-08-19 19:07:00,
2013-08-19 15:12:00,77.5,64.1,30.30,SSE,158,0.0,0.0,63,0.00,,,0.27,WUHU216TE923,2013-08-19 19:12:00,
2013-08-19 15:17:00,78.1,64.3,30.30,WNW,293,0.0,0.0,62,0.00,,,0.27,WUHU216TE923,2013-08-19 19:17:00,
2013-08-19 15:22:00,78.8,63.0,30.30,South,180,0.0,0.0,58,0.00,,,0.27,WUHU216TE923,2013-08-19 19:22:00,
2013-08-19 15:27:00,79.2,62.3,30.29,WNW,293,0.0,0.0,56,0.00,,,0.27,WUHU216TE923,2013-08-19 19:27:00,
2013-08-19 15:32:00,79.5,63.1,30.29,West,270,0.0,0.0,57,0.00,,,0.27,WUHU216TE923,2013-08-19 19:32:00,
2013-08-19 15:37:00,79.2,61.3,30.29,North,0,0.0,0.0,54,0.00,,,0.27,WUHU216TE923,2013-08-19 19:37:00,
2013-08-19 15:42:00,79.2,60.2,30.29,SSE,158,0.0,0.0,52,0.00,,,0.27,WUHU216TE923,2013-08-19 19:42:00,
2013-08-19 15:47:00,79.7,61.2,30.24,WSW,248,0.1,0.1,53,0.00,,,0.27,WUHU216TE923,2013-08-19 19:47:00,
2013-08-19 15:52:00,80.1,61.0,30.24,NNW,338,0.2,0.2,52,0.00,,,0.27,WUHU216TE923,2013-08-19 19:52:00,
2013-08-19 15:57:00,80.2,61.7,30.24,SW,225,0.1,0.2,53,0.00,,,0.27,WUHU216TE923,2013-08-19 19:57:00,
2013-08-19 16:02:00,79.3,59.2,30.24,West,270,0.0,0.1,50,0.00,,,0.27,WUHU216TE923,2013-08-19 20:02:00,
2013-08-19 16:07:00,79.0,60.0,30.26,NW,315,0.0,0.0,52,0.00,,,0.27,WUHU216TE923,2013-08-19 20:07:00,
2013-08-19 16:12:00,79.2,61.3,30.26,SSW,203,0.0,0.0,54,0.00,,,0.27,WUHU216TE923,2013-08-19 20:12:00,
2013-08-19 16:17:00,79.5,62.1,30.26,WSW,248,0.0,0.0,55,0.00,,,0.27,WUHU216TE923,2013-08-19 20:17:00,
2013-08-19 16:22:00,79.2,60.2,30.26,SSE,158,0.0,0.0,52,0.00,,,0.27,WUHU216TE923,2013-08-19 20:22:00,
2013-08-19 16:27:00,79.2,60.7,30.24,NW,315,0.0,0.0,53,0.00,,,0.27,WUHU216TE923,2013-08-19 20:27:00,
2013-08-19 16:32:00,79.2,60.7,30.24,WNW,293,0.0,0.0,53,0.00,,,0.27,WUHU216TE923,2013-08-19 20:32:00,
2013-08-19 16:37:00,79.2,61.3,30.24,West,270,0.0,0.0,54,0.00,,,0.27,WUHU216TE923,2013-08-19 20:37:00,
2013-08-19 16:42:00,79.3,60.3,30.24,NW,315,0.0,0.0,52,0.00,,,0.27,WUHU216TE923,2013-08-19 20:42:00,
2013-08-19 16:47:00,79.3,59.7,30.22,NW,315,0.0,0.0,51,0.00,,,0.27,WUHU216TE923,2013-08-19 20:47:00,
2013-08-19 16:52:00,79.5,60.5,30.22,NW,315,0.0,0.0,52,0.00,,,0.27,WUHU216TE923,2013-08-19 20:52:00,
2013-08-19 16:57:00,79.2,61.3,30.22,NW,315,0.0,0.0,54,0.00,,,0.27,WUHU216TE923,2013-08-19 20:57:00,
2013-08-19 17:02:00,79.3,60.8,30.22,WNW,293,0.0,0.0,53,0.00,,,0.27,WUHU216TE923,2013-08-19 21:02:00,
2013-08-19 17:07:00,79.3,59.7,30.26,NW,315,0.0,0.0,51,0.00,,,0.27,WUHU216TE923,2013-08-19 21:07:00,
2013-08-19 17:12:00,79.3,60.3,30.26,NW,315,0.0,0.0,52,0.00,,,0.27,WUHU216TE923,2013-08-19 21:12:00,
2013-08-19 17:17:00,79.0,60.6,30.26,West,270,0.0,0.0,53,0.00,,,0.27,WUHU216TE923,2013-08-19 21:17:00,
2013-08-19 17:22:00,78.8,60.9,30.26,NW,315,0.0,0.0,54,0.00,,,0.27,WUHU216TE923,2013-08-19 21:22:00,
2013-08-19 17:27:00,78.4,61.6,30.23,NW,315,0.0,0.0,56,0.00,,,0.27,WUHU216TE923,2013-08-19 21:27:00,
2013-08-19 17:32:00,78.3,61.5,30.23,NW,315,0.0,0.0,56,0.00,,,0.27,WUHU216TE923,2013-08-19 21:32:00,
2013-08-19 17:37:00,78.1,61.3,30.23,SW,225,0.0,0.0,56,0.00,,,0.27,WUHU216TE923,2013-08-19 21:37:00,
2013-08-19 17:42:00,77.9,61.6,30.23,WSW,248,0.0,0.0,57,0.00,,,0.27,WUHU216TE923,2013-08-19 21:42:00,
2013-08-19 17:47:00,77.5,61.8,30.25,SW,225,0.0,0.0,58,0.00,,,0.27,WUHU216TE923,2013-08-19 21:47:00,
2013-08-19 17:52:00,77.7,62.0,30.25,SW,225,0.0,0.0,58,0.00,,,0.27,WUHU216TE923,2013-08-19 21:52:00,
2013-08-19 17:57:00,77.4,61.2,30.25,SW,225,0.0,0.0,57,0.00,,,0.27,WUHU216TE923,2013-08-19 21:57:00,
2013-08-19 18:02:00,77.4,61.2,30.25,SW,225,0.0,0.0,57,0.00,,,0.27,WUHU216TE923,2013-08-19 22:02:00,
2013-08-19 18:07:00,77.4,62.2,30.23,SW,225,0.0,0.0,59,0.00,,,0.27,WUHU216TE923,2013-08-19 22:07:00,
2013-08-19 18:12:00,77.4,62.2,30.23,SW,225,0.0,0.0,59,0.00,,,0.27,WUHU216TE923,2013-08-19 22:12:00,
2013-08-19 18:17:00,77.7,62.4,30.23,SW,225,0.0,0.0,59,0.00,,,0.27,WUHU216TE923,2013-08-19 22:17:00,
2013-08-19 18:22:00,77.7,62.4,30.23,SW,225,0.0,0.0,59,0.00,,,0.27,WUHU216TE923,2013-08-19 22:22:00,
2013-08-19 18:27:00,77.4,61.7,30.21,SW,225,0.0,0.0,58,0.00,,,0.27,WUHU216TE923,2013-08-19 22:27:00,
2013-08-19 18:32:00,77.4,61.7,30.21,SW,225,0.0,0.0,58,0.00,,,0.27,WUHU216TE923,2013-08-19 22:32:00,
2013-08-19 18:37:00,77.2,62.0,30.21,SW,225,0.0,0.0,59,0.00,,,0.27,WUHU216TE923,2013-08-19 22:37:00,
2013-08-19 18:42:00,77.2,62.0,30.21,SW,225,0.0,0.0,59,0.00,,,0.27,WUHU216TE923,2013-08-19 22:42:00,
2013-08-19 18:47:00,77.2,62.5,30.22,SW,225,0.0,0.0,60,0.00,,,0.27,WUHU216TE923,2013-08-19 22:47:00,
2013-08-19 18:52:00,77.2,62.5,30.22,SW,225,0.0,0.0,60,0.00,,,0.27,WUHU216TE923,2013-08-19 22:52:00,
2013-08-19 18:57:00,77.0,61.8,30.22,SW,225,0.0,0.0,59,0.00,,,0.27,WUHU216TE923,2013-08-19 22:57:00,
2013-08-19 19:02:00,77.0,61.8,30.22,SW,225,0.0,0.0,59,0.00,,,0.27,WUHU216TE923,2013-08-19 23:02:00,
2013-08-19 19:07:00,77.0,61.8,30.17,NNW,338,0.0,0.0,59,0.00,,,0.27,WUHU216TE923,2013-08-19 23:07:00,
2013-08-19 19:12:00,77.0,61.8,30.17,NNW,338,0.0,0.0,59,0.00,,,0.27,WUHU216TE923,2013-08-19 23:12:00,
2013-08-19 19:17:00,76.5,61.8,30.17,NNE,23,0.0,0.0,60,0.00,,,0.27,WUHU216TE923,2013-08-19 23:17:00,
2013-08-19 19:22:00,76.5,61.8,30.17,NNE,23,0.0,0.0,60,0.00,,,0.27,WUHU216TE923,2013-08-19 23:22:00,
2013-08-19 19:27:00,75.9,61.7,30.19,NNE,23,0.0,0.0,61,0.00,,,0.27,WUHU216TE923,2013-08-19 23:27:00,
2013-08-19 19:32:00,75.9,61.7,30.19,NNE,23,0.0,0.0,61,0.00,,,0.27,WUHU216TE923,2013-08-19 23:32:00,
2013-08-19 19:37:00,75.9,63.1,30.19,ENE,68,0.0,0.0,64,0.00,,,0.27,WUHU216TE923,2013-08-19 23:37:00,
2013-08-19 19:42:00,75.9,63.1,30.19,ENE,68,0.0,0.0,64,0.00,,,0.27,WUHU216TE923,2013-08-19 23:42:00,
2013-08-19 19:47:00,75.7,63.3,30.19,NNE,23,0.0,0.0,65,0.00,,,0.27,WUHU216TE923,2013-08-19 23:47:00,
2013-08-19 19:52:00,75.7,63.3,30.19,NNE,23,0.0,0.0,65,0.00,,,0.27,WUHU216TE923,2013-08-19 23:52:00,
2013-08-19 19:57:00,75.6,63.7,30.19,ESE,113,0.0,0.0,66,0.00,,,0.27,WUHU216TE923,2013-08-19 23:57:00,
2013-08-19 20:02:00,75.6,63.7,30.19,ESE,113,0.0,0.0,66,0.00,,,0.27,WUHU216TE923,2013-08-20 00:02:00,
2013-08-19 20:07:00,75.0,63.5,30.19,East,90,0.4,1.4,67,0.00,,,0.27,WUHU216TE923,2013-08-20 00:07:00,
2013-08-19 20:12:00,75.0,63.5,30.19,East,90,0.4,1.4,67,0.00,,,0.27,WUHU216TE923,2013-08-20 00:12:00,
2013-08-19 20:17:00,74.5,62.6,30.19,East,90,0.3,0.5,66,0.00,,,0.27,WUHU216TE923,2013-08-20 00:17:00,
2013-08-19 20:22:00,74.5,62.6,30.19,East,90,0.3,0.5,66,0.00,,,0.27,WUHU216TE923,2013-08-20 00:22:00,
2013-08-19 20:27:00,73.9,62.5,30.19,NE,45,0.0,0.1,67,0.00,,,0.27,WUHU216TE923,2013-08-20 00:27:00,
2013-08-19 20:32:00,73.9,62.5,30.19,NE,45,0.0,0.1,67,0.00,,,0.27,WUHU216TE923,2013-08-20 00:32:00,
2013-08-19 20:37:00,73.8,62.4,30.27,NE,45,0.0,0.0,67,0.00,,,0.27,WUHU216TE923,2013-08-20 00:37:00,
2013-08-19 20:42:00,73.4,62.4,30.27,ESE,113,0.0,0.0,68,0.00,,,0.27,WUHU216TE923,2013-08-20 00:42:00,
2013-08-19 20:47:00,73.0,62.4,30.25,NNE,23,0.0,0.0,69,0.00,,,0.27,WUHU216TE923,2013-08-20 00:47:00,
2013-08-19 20:52:00,73.0,62.4,30.25,NNE,23,0.0,0.0,69,0.00,,,0.27,WUHU216TE923,2013-08-20 00:52:00,
2013-08-19 20:57:00,72.9,63.1,30.25,NE,45,0.0,0.0,71,0.00,,,0.27,WUHU216TE923,2013-08-20 00:57:00,
2013-08-19 21:02:00,72.9,63.1,30.25,NE,45,0.0,0.0,71,0.00,,,0.27,WUHU216TE923,2013-08-20 01:02:00,
2013-08-19 21:07:00,72.5,62.7,30.26,NNE,23,0.0,0.0,71,0.00,,,0.27,WUHU216TE923,2013-08-20 01:07:00,
2013-08-19 21:12:00,72.5,62.7,30.26,NNE,23,0.0,0.0,71,0.00,,,0.27,WUHU216TE923,2013-08-20 01:12:00,
2013-08-19 21:17:00,72.3,62.5,30.26,NW,315,0.3,1.2,71,0.00,,,0.27,WUHU216TE923,2013-08-20 01:17:00,
2013-08-19 21:22:00,72.3,62.5,30.26,NW,315,0.3,1.2,71,0.00,,,0.27,WUHU216TE923,2013-08-20 01:22:00,
2013-08-19 21:27:00,72.3,61.8,30.24,SSE,158,0.2,0.3,69,0.00,,,0.27,WUHU216TE923,2013-08-20 01:27:00,
2013-08-19 21:32:00,72.3,61.8,30.24,SSE,158,0.2,0.3,69,0.00,,,0.27,WUHU216TE923,2013-08-20 01:32:00,
2013-08-19 21:37:00,72.0,62.3,30.24,ENE,68,0.0,0.1,71,0.00,,,0.27,WUHU216TE923,2013-08-20 01:37:00,
2013-08-19 21:42:00,72.0,62.3,30.24,ENE,68,0.0,0.1,71,0.00,,,0.27,WUHU216TE923,2013-08-20 01:42:00,
2013-08-19 21:47:00,71.8,62.1,30.28,NNW,338,0.1,0.1,71,0.00,,,0.27,WUHU216TE923,2013-08-20 01:47:00,
2013-08-19 21:52:00,71.8,62.1,30.28,NNW,338,0.1,0.1,71,0.00,,,0.27,WUHU216TE923,2013-08-20 01:52:00,
2013-08-19 21:57:00,71.4,62.1,30.28,NE,45,0.1,0.2,72,0.00,,,0.27,WUHU216TE923,2013-08-20 01:57:00,
2013-08-19 22:02:00,71.4,62.1,30.28,NE,45,0.1,0.2,72,0.00,,,0.27,WUHU216TE923,2013-08-20 02:02:00,
2013-08-19 22:07:00,71.2,61.9,30.28,NNE,23,0.0,0.0,72,0.00,,,0.27,WUHU216TE923,2013-08-20 02:07:00,
2013-08-19 22:12:00,71.2,61.9,30.28,NNE,23,0.0,0.0,72,0.00,,,0.27,WUHU216TE923,2013-08-20 02:12:00,
2013-08-19 22:17:00,71.1,62.2,30.28,ESE,113,0.0,0.0,73,0.00,,,0.27,WUHU216TE923,2013-08-20 02:17:00,
2013-08-19 22:22:00,71.1,62.2,30.28,ESE,113,0.0,0.0,73,0.00,,,0.27,WUHU216TE923,2013-08-20 02:22:00,
2013-08-19 22:27:00,71.1,62.2,30.30,NE,45,0.0,0.0,73,0.00,,,0.27,WUHU216TE923,2013-08-20 02:27:00,
2013-08-19 22:32:00,71.1,62.2,30.30,NE,45,0.0,0.0,73,0.00,,,0.27,WUHU216TE923,2013-08-20 02:32:00,
2013-08-19 22:37:00,70.9,62.0,30.30,North,0,0.0,0.0,73,0.00,,,0.27,WUHU216TE923,2013-08-20 02:37:00,
2013-08-19 22:42:00,70.9,62.0,30.30,North,0,0.0,0.0,73,0.00,,,0.27,WUHU216TE923,2013-08-20 02:42:00,
2013-08-19 22:47:00,70.5,62.0,30.32,NW,315,0.0,0.0,74,0.00,,,0.27,WUHU216TE923,2013-08-20 02:47:00,
2013-08-19 22:52:00,70.5,62.0,30.32,NW,315,0.0,0.0,74,0.00,,,0.27,WUHU216TE923,2013-08-20 02:52:00,
2013-08-19 22:57:00,70.5,62.0,30.32,East,90,0.0,0.0,74,0.00,,,0.27,WUHU216TE923,2013-08-20 02:57:00,
2013-08-19 23:02:00,70.5,62.0,30.32,East,90,0.0,0.0,74,0.00,,,0.27,WUHU216TE923,2013-08-20 03:02:00,
2013-08-19 23:07:00,70.2,61.7,30.30,ENE,68,0.0,0.0,74,0.00,,,0.27,WUHU216TE923,2013-08-20 03:07:00,
2013-08-19 23:12:00,70.2,61.7,30.30,ENE,68,0.0,0.0,74,0.00,,,0.27,WUHU216TE923,2013-08-20 03:12:00,
2013-08-19 23:17:00,70.0,61.5,30.30,SW,225,0.0,0.0,74,0.00,,,0.27,WUHU216TE923,2013-08-20 03:17:00,
2013-08-19 23:22:00,70.0,61.5,30.30,SW,225,0.0,0.0,74,0.00,,,0.27,WUHU216TE923,2013-08-20 03:22:00,
2013-08-19 23:27:00,70.0,61.8,30.35,ENE,68,0.0,0.0,75,0.00,,,0.27,WUHU216TE923,2013-08-20 03:27:00,
2013-08-19 23:32:00,70.0,61.8,30.35,ENE,68,0.0,0.0,75,0.00,,,0.27,WUHU216TE923,2013-08-20 03:32:00,
2013-08-19 23:33:00,70.0,61.8,30.35,ENE,68,0.0,0.0,75,0.00,,,0.27,WUHU216TE923,2013-08-20 03:33:00,
2013-08-19 23:37:00,70.0,61.8,30.35,ENE,68,0.0,0.0,75,0.00,,,0.27,WUHU216TE923,2013-08-20 03:37:00,
2013-08-19 23:42:00,70.0,61.8,30.35,ENE,68,0.0,0.0,75,0.00,,,0.27,WUHU216TE923,2013-08-20 03:42:00,
2013-08-19 23:47:00,69.4,61.6,30.34,WSW,248,0.0,0.0,76,0.00,,,0.27,WUHU216TE923,2013-08-20 03:47:00,
2013-08-19 23:52:00,69.4,61.6,30.34,WSW,248,0.0,0.0,76,0.00,,,0.27,WUHU216TE923,2013-08-20 03:52:00,
2013-08-19 23:57:00,69.3,61.5,30.34,ENE,68,0.0,0.0,76,0.00,,,0.27,WUHU216TE923,2013-08-20 03:57:00,